Location: Mahannah Oil Field
(37.4664°N, 96.6003°W)
Time: 01:07:34
(UTC+00:00)

A-11 Canister half - Pass Details

Date: 25 January 2021
Orbit: 1524 x 1684 km, 47.3° (Epoch: 25 February)

Event Time Altitude Azimuth Distance (km) Brightness Sun altitude
Rises 02:33:02 0° 301° (WNW) 4,759 12.4 -33.8°
Reaches altitude 10° 02:36:04 10° 302° (WNW) 3,793 11.7 -34.4°
Maximum altitude 02:45:49 88° 33° (NNE) 1,631 8.9 -36.3°
Enters shadow 02:46:01 86° 83° (E) 1,633 8.9 -36.4°
Drops below altitude 10° 02:55:51 10° 123° (ESE) 3,906 - -38.3°
Sets 02:59:02 0° 124° (SE) 4,906 - -39.0°
